Other Surface Observations
Issued by NWS

Home | Current Version | Previous Version | Text Only | Print | Product List | Glossary On
Versions: 1 2 3 4 5 6 7 8 9 10 11 12 13 14 15 16 17 18 19 20 21 22 23 24 25 26 27 28 29 30 31 32 33 34 35 36 37 38 39 40 41 42 43 44 45 46 47 48 49 50
430
SXUS52 KTAE 090910
OSOTAE
OSOTAE
North Florida/South Alabama/Southwest Georgia Weather Roundup
National Weather Service Tallahassee Florida
400 AM EST FRI DEC 09 2016

Note: "fair" indicates few or no clouds below 12,000 feet with no
significant weather and/or obstructions to visibility.

!FLZ017-115-028-034-025-091000
...North Florida...

CITY           SKY/WX    TMP DP  RH WIND       PRES   REMARKS
TALLAHASSEE    MOCLDY    45  24  43 N12G21    30.35R WCI  39
APALACHICOLA   CLOUDY    47  26  44 N18       30.33R WCI  40
PERRY          CLOUDY    47  26  42 N8        30.33R WCI  44
CROSS CITY     CLOUDY    48  25  40 N13       30.30R WCI  43
JACKSONVILLE   CLOUDY    47  27  45 N10       30.30R WCI  42
$$

!FLZ112-006-005-002-011-091000
...Florida Panhandle...

CITY           SKY/WX    TMP DP  RH WIND       PRES   REMARKS
MARIANNA       CLOUDY    42  25  50 N10       30.38R WCI  36
BONIFAY        FAIR      41  26  55 N6        30.41R WCI  37
PANAMA CITY NW FAIR      43  24  47 N15G24    30.37R WCI  36
TYNDALL AFB    CLOUDY    44  26  49 N12       30.37R WCI  39
TYND DRONE APT PTSUNNY   45  28  52 N18       30.37R WCI  37
DE FUNIAK SPR  FAIR      40  24  54 N10G17    30.40R WCI  33
EGLIN AFB      PTCLDY    41  25  53 N13       30.40R WCI  34
DESTIN         CLOUDY    45  27  49 N18G28    30.39R WCI  37
HURLBURT       PTCLDY    41  23  48 N17       30.39R WCI  33
CRESTVIEW      MOCLDY    39  26  59 N7        30.43R WCI  34
PENSACOLA      PTCLDY    40  27  59 N9        30.42R WCI  34
$$

!ALZ063-066-091000
...South Alabama...

CITY           SKY/WX    TMP DP  RH WIND       PRES   REMARKS
DOTHAN         PTCLDY    39  27  62 N9        30.43R WCI  33
OZARK CAIRNS   MOCLDY    39  24  55 N9        30.40R WCI  33
FT RUCKER HELI PTCLDY    38  25  59 N6        30.40R WCI  33
RUCKER HELI 3  NOT AVBL
RUCKER HELI 2  FAIR      40  25  55 N8        30.40R WCI  34
FLORALA APT    PTCLDY    37  26  64 N7        30.43R WCI  32
ANDALUSIA      CLEAR     41  25  53 N8        30.43R WCI  36
TROY           PTCLDY    37  24  59 N9        30.43R WCI  30
EUFALA         FAIR      38  23  55 N6        30.40R WCI  33
MOBILE         CLEAR     38  24  57 N12       30.46S WCI  30
$$

!GAZ120>161-091000
...Southwest and South Central Georgia...

CITY           SKY/WX    TMP DP  RH WIND       PRES   REMARKS
THOMASVILLE    FAIR      43  28  56 N7        30.37R WCI  39
BAINBRIDGE     CLOUDY    41  27  56 N8        30.38S WCI  36
MOODY AFB      CLOUDY    43  24  46 N8        30.33R WCI  38
VALDOSTA       CLOUDY    43  24  47 N12       30.34R WCI  37
MOULTRIE       CLOUDY    43  27  52 N7        30.36R WCI  39
BLAKELY        MOCLDY    43  27  52 N5        30.40S WCI  40
ALBANY         MOCLDY    40  21  46 N8        30.39R WCI  34
TIFTON         FAIR      40  25  53 N7        30.35R WCI  36
FITZGERALD     FAIR      41  26  54 N7        30.38R WCI  36
CORDELE        FAIR      41  23  49 N7        30.38R WCI  36
AMERICUS       FAIR      36  18  48 N9        30.39S WCI  29
HOMERVILLE     FAIR      43  28  56 NW5       30.35R WCI  40
$$

!GMZ750-755-770-775-091000
...Coastal and Buoy Obs...

STATION/POSITION TIME  TEMP    WIND        PRES    VSBY  WAVE
                       AIR SEA DIR/SP/G                  HT/PER
                 (UTC) (F)     (DEG/KT/KT) (MB)    (MI)  (FT/S)
KEATON BEACH     0900   48      20/  5/  8 1026.3R
CEDAR KEY        0800   52      20/  5/  6 1025.2R
C TOWER          0900   49      20/ 26/ 29 1026.8R
APALACHICOLA BUO 0850   61 74   20/ 19/ 25 1024.5R         5/ 6
PANAMA CITY BUOY 0850   58 74              1025.9R         6/ 6
MOBILE BUOY      0850   54 74   20/ 21/ 27 1029.5R         8/ 7
ORANGE BCH AL BU 0850   47 69   20/ 23/ 29 1030.0R         5/ 5
$$




USA.gov is the U.S. government's official web portal to all federal, state and local government web resources and services.